RH
68 69 69 67 63 59 56 53 50 48 46 45 45 46 47 48 49 49 48 48 47 46 46 45 44 43 43 42 40 38 35 32 29 27 26 25 24 23 22 21 20 20 19 19 19 20 20 21 21 20 19 18
78 72 66 60 55 53 52 52 52 51 51 51 51 53 54 54 54 53 52 51 50 49 48 47 46 45 43 41 37 34 30 27 24 22 21 19 18 18 17 17 16 16 16 16 16 17 17 17 18 18 18 17
77 69 63 60 60 60 59 58 58 57 57 57 57 59 59 59 58 56 54 52 51 49 48 46 43 40 36 33 30 27 24 21 19 17 15 13 12 11 11 10 10 10 11 11 12 12 13 13 14 14 14 15
74 70 67 65 64 62 61 60 61 61 61 62 62 63 62 61 58 56 54 51 49 46 42 38 34 30 27 24 22 20 18 16 14 13 12 11 10 9 9 8 7 7 7 8 8 8 9 9 9 10 10 11
70 67 64 63 62 62 62 63 64 64 65 64 64 64 62 59 56 54 50 46 41 36 31 28 24 21 19 17 17 17 16 15 14 13 13 12 12 12 11 10 9 9 8 8 7 7 8 8 8 8 8 8
65 63 61 62 63 64 65 66 66 66 66 64 63 61 59 55 51 46 40 35 30 26 23 20 19 17 17 17 17 18 17 16 15 15 15 15 15 15 14 13 12 11 11 10 9 9 8 8 8 8 8 8
63 62 63 64 66 67 67 66 65 64 63 61 60 57 52 47 41 35 29 26 23 21 20 20 20 20 20 19 19 19 18 16 16 16 16 17 17 16 16 15 15 14 13 12 11 11 10 9 9 9 9 9
65 66 67 69 69 68 67 65 63 62 61 59 54 48 41 36 31 27 24 23 23 23 23 23 23 23 22 21 21 20 19 18 17 17 17 18 17 17 17 16 16 15 14 13 13 12 11 10 10 10 9 9
70 71 72 72 70 68 66 65 64 62 58 50 43 37 32 28 26 25 25 26 26 26 26 26 25 24 24 23 22 21 21 20 19 19 18 18 18 18 17 17 16 15 14 13 13 13 12 11 10 10 9 9
74 75 74 72 70 69 68 65 61 54 46 39 34 30 28 28 28 29 30 30 29 29 29 28 26 26 25 25 25 24 24 23 21 20 19 18 17 17 17 16 16 15 14 13 13 12 12 11 10 10 9 9
77 76 74 73 71 69 64 57 50 44 39 36 33 31 33 35 36 35 35 35 34 33 32 30 29 29 29 29 28 27 26 24 22 21 19 18 17 16 15 15 15 14 14 13 12 12 11 11 10 10 10 9
78 76 74 73 70 63 56 51 47 45 42 38 38 41 43 43 42 41 40 40 39 37 36 34 33 33 33 32 31 29 27 24 22 21 19 18 17 16 15 14 14 14 13 13 12 11 11 11 11 11 11 10
78 76 75 71 66 61 57 56 54 50 46 45 48 49 50 49 47 46 45 44 43 42 40 38 37 37 36 34 32 29 27 24 22 20 19 18 17 16 15 14 14 13 13 13 12 12 12 12 12 12 12 11
79 77 74 70 66 64 62 60 56 51 51 52 54 54 54 54 52 51 50 49 47 45 44 43 41 40 38 35 32 30 26 23 21 20 18 17 16 16 16 15 14 13 14 14 14 13 13 13 13 13 13 12
80 77 74 71 68 66 63 60 56 55 57 58 58 58 59 58 57 56 55 54 51 49 47 45 43 41 38 35 32 29 26 23 21 19 18 17 16 16 17 16 15 14 14 15 15 15 14 14 13 13 13 13
76 74 72 69 67 64 62 60 60 61 63 63 63 62 61 60 60 59 58 57 54 51 49 47 45 42 38 35 32 28 25 22 20 19 18 17 17 17 17 17 16 15 15 16 16 16 16 15 14 14 13 12
73 72 71 69 68 67 67 67 68 69 69 68 67 65 64 63 62 60 58 57 55 52 51 49 46 42 38 34 30 27 23 22 20 20 19 18 18 18 18 18 17 16 16 16 16 17 17 17 16 15 14 13
80 79 77 77 77 78 78 77 76 75 74 72 71 69 67 66 64 61 59 58 57 55 53 50 47 42 38 33 28 25 23 22 21 20 20 19 19 19 20 20 20 19 18 18 17 18 18 19 18 17 17 16
90 88 87 87 87 87 86 85 82 80 79 76 74 72 70 69 66 63 63 62 60 58 54 51 46 41 35 30 26 25 24 23 21 21 20 20 20 21 22 22 23 22 21 20 19 19 20 21 21 21 22 20
90 87 86 86 86 87 88 87 84 82 81 78 76 75 72 69 67 67 68 66 62 59 54 49 44 37 31 27 26 25 23 20 19 18 19 19 20 22 23 25 26 26 25 24 22 22 22 23 24 25 26 22
84 82 80 79 79 80 82 84 84 82 82 81 78 75 71 69 71 72 71 67 62 58 53 47 40 33 29 27 26 23 20 19 17 17 18 19 19 21 24 26 27 28 29 29 27 25 24 25 28 29 28 22
85 83 80 77 74 74 76 79 81 82 81 80 77 75 74 76 77 75 71 65 59 55 50 42 35 31 29 27 25 22 21 20 18 18 19 20 20 20 23 26 28 30 32 33 33 30 28 28 31 33 28 23
89 86 81 78 75 75 77 80 82 82 82 81 80 81 83 83 81 77 71 64 58 52 44 37 33 31 29 26 24 23 23 22 20 19 19 20 21 19 19 22 25 30 34 36 37 35 33 32 34 33 29 25
86 82 80 80 81 82 83 84 85 85 86 87 88 88 87 84 80 76 71 63 54 46 40 36 34 31 29 26 24 24 24 22 22 21 20 20 19 17 16 17 20 26 34 38 40 39 37 36 36 33 29 29
86 87 88 90 91 93 93 92 92 92 92 92 91 87 84 82 78 74 66 55 47 41 38 36 33 31 29 27 26 25 24 23 22 20 20 19 18 17 16 16 17 21 30 39 43 42 40 38 37 33 30 30
92 94 95 97 98 98 97 96 96 95 94 90 86 82 79 76 71 63 54 46 42 39 36 33 32 31 29 28 27 27 27 26 25 22 20 19 18 17 17 18 18 19 25 35 44 45 42 39 37 34 31 31
90 92 93 94 94 94 93 93 92 90 86 83 79 73 67 60 53 47 42 39 37 34 32 31 30 30 28 27 27 27 29 29 29 28 24 21 19 19 19 19 20 20 22 31 42 46 43 39 36 34 33 33
74 74 73 72 71 70 71 71 69 66 62 59 56 52 46 41 37 35 34 32 30 29 30 29 29 29 28 27 27 27 27 29 30 31 30 28 24 21 20 20 21 21 22 27 35 43 43 38 36 36 34 33
46 45 44 43 41 40 39 38 38 37 36 34 33 32 31 31 31 30 29 28 28 29 29 29 28 28 28 27 27 26 26 27 28 29 30 31 30 28 24 22 21 22 23 25 28 36 40 36 34 37 38 36
39 38 38 37 37 36 35 34 33 32 32 31 31 31 31 31 31 30 31 31 32 32 32 32 32 32 32 31 30 29 28 27 27 26 27 28 30 31 31 28 25 24 23 23 24 29 34 34 31 34 39 41
45 45 44 44 44 44 44 44 43 42 40 38 38 38 37 37 36 36 36 37 37 37 37 37 37 37 37 37 37 36 35 33 32 31 30 29 29 29 31 32 31 30 27 25 24 25 28 30 29 29 35 41
Wind_Speed
85 86 87 88 89 91 92 94 96 97 99 100 101 101 101 101 100 100 100 101 101 102 102 103 104 105 105 106 107 107 107 107 107 106 106 106 106 105 105 105 104 103 102 102 101 100 100 100 100 100 99 98
88 89 90 91 93 94 96 97 99 100 101 101 101 101 100 100 100 100 101 102 103 104 105 105 105 106 106 107 107 107 107 107 106 106 106 105 105 105 105 104 104 103 102 101 100 100 99 99 99 99 99 98
92 92 93 95 96 97 98 99 100 100 101 100 100 99 99 100 101 102 103 104 105 105 106 106 106 106 106 106 106 106 106 105 105 105 105 105 104 104 104 103 102 101 100 99 99 98 98 98 97 98 98 98
95 96 96 97 98 98 99 99 99 99 99 99 99 100 101 102 104 104 105 105 105 105 105 105 105 105 104 104 104 104 104 104 103 103 104 103 103 103 102 101 100 99 98 97 97 96 96 96 96 96 96 96
97 98 98 98 98 98 98 98 98 99 99 100 101 102 103 104 105 105 105 104 104 103 103 103 103 102 102 101 101 101 101 102 101 101 101 101 101 101 100 99 98 97 96 96 95 94 94 94 94 94 94 95
99 99 98 98 98 98 98 99 99 100 102 103 103 104 104 104 104 104 103 102 102 101 101 100 100 99 99 98 98 98 99 99 99 99 98 98 98 98 98 97 97 96 95 94 94 93 93 92 92 93 93 93
99 98 98 98 98 99 100 101 102 103 103 104 104 104 103 103 102 101 100 100 99 98 98 97 97 96 95 95 95 96 97 97 97 96 96 95 95 95 95 95 95 95 94 94 94 94 93 92 92 92 92 93
99 99 99 99 100 101 102 103 103 103 103 103 102 102 101 100 99 99 98 97 96 96 95 94 94 94 94 94 94 95 95 95 95 95 94 94 94 94 94 94 94 94 94 94 94 94 93 93 93 92 92 93
100 100 100 101 102 102 103 103 103 102 102 101 100 99 99 98 97 96 95 94 94 93 93 93 93 93 93 93 93 93 93 93 93 94 94 93 93 93 93 93 93 93 93 93 93 93 93 93 93 93 92 93
101 101 101 102 102 102 102 102 101 101 100 99 98 97 96 95 94 93 93 92 92 92 92 92 93 92 92 92 92 92 92 92 92 93 93 93 93 92 92 91 91 92 92 92 92 91 91 91 92 92 92 92
102 102 102 102 102 101 101 100 100 99 98 97 95 94 93 93 93 92 92 92 92 92 92 92 92 92 92 92 91 91 91 91 92 92 92 92 92 91 91 90 90 90 90 90 90 90 89 89 90 91 91 92
101 101 101 101 101 100 100 99 98 97 96 94 93 93 92 92 92 92 92 92 92 92 92 92 92 92 92 92 91 91 91 91 91 91 91 91 91 90 90 89 88 87 87 88 88 88 87 87 87 89 90 91
101 101 101 100 100 100 99 98 97 95 94 93 93 93 93 92 92 92 93 93 93 92 92 92 92 92 92 92 92 92 91 91 91 91 91 90 90 89 89 88 87 86 85 85 86 86 86 85 85 87 88 89
101 101 101 101 100 99 98 97 96 94 94 94 94 93 93 93 93 93 93 93 93 93 93 93 93 93 93 92 92 92 92 91 91 91 90 89 89 88 88 88 86 85 83 84 84 84 84 84 84 85 86 87
102 102 101 101 100 99 97 96 95 95 95 95 94 94 93 94 94 94 94 94 94 93 93 93 93 93 93 93 92 92 92 92 91 90 90 89 88 87 87 87 86 84 83 83 83 83 83 83 83 83 84 85
102 101 101 100 99 98 97 97 96 96 96 95 95 95 95 95 95 95 94 94 94 94 94 94 94 93 93 93 93 93 92 92 91 90 89 88 87 87 87 87 86 84 82 82 82 82 81 82 82 82 82 83
102 101 101 100 99 99 98 98 98 97 97 97 96 96 96 96 95 95 95 95 94 94 94 94 94 94 94 94 93 93 93 92 91 90 89 87 86 85 85 85 85 83 82 81 81 81 80 80 81 80 80 80
102 102 102 102 101 101 100 100 99 99 99 99 98 98 97 97 97 96 96 95 95 94 94 94 94 94 94 94 94 93 92 91 90 89 87 86 85 84 83 83 83 82 81 81 81 80 79 79 79 79 78 77
104 104 104 103 103 103 102 102 102 101 101 101 100 99 99 98 98 97 96 95 95 95 95 95 95 95 95 94 93 92 91 90 89 87 86 84 83 82 81 80 81 81 80 80 80 80 79 78 78 77 76 76
106 106 105 105 105 105 105 104 104 103 103 102 101 101 100 99 98 97 96 96 96 96 95 95 95 95 94 92 91 90 89 88 87 85 84 82 81 79 79 78 79 79 79 79 80 79 78 78 77 76 75 75
106 106 106 106 106 106 106 105 105 104 104 103 102 101 100 98 97 97 97 97 96 96 96 96 95 94 92 90 88 86 85 83 82 81 80 79 78 77 77 77 77 78 78 78 79 79 78 77 77 76 75 75
106 105 105 105 105 105 105 105 104 104 103 102 101 100 99 98 97 97 98 97 97 96 96 96 95 93 90 87 84 82 80 79 78 77 76 76 75 74 73 74 76 77 77 77 79 79 79 77 76 76 76 76
104 104 104 104 103 103 103 103 102 102 101 100 100 99 98 98 98 99 99 99 98 97 96 95 93 90 87 84 80 78 77 76 75 74 73 72 72 72 71 71 73 75 76 77 78 79 79 78 77 77 77 77
102 102 101 101 101 100 100 100 100 100 99 99 99 99 99 99 100 100 100 99 98 97 95 93 91 88 85 81 78 77 76 75 74 73 72 71 70 70 70 70 71 73 74 76 77 79 79 79 79 79 78 79
98 98 98 98 98 98 99 99 99 100 100 100 100 101 101 101 101 101 101 99 98 95 93 90 88 85 82 80 78 77 76 75 75 74 72 71 70 70 70 70 70 71 73 75 77 79 79 80 81 81 81 81
97 97 98 98 99 100 100 101 101 101 102 103 103 103 102 102 102 101 100 98 96 93 90 88 85 83 81 80 79 78 77 76 76 76 75 73 71 71 70 71 71 71 72 74 77 79 80 81 83 83 83 83
99 100 100 101 101 102 103 103 104 104 105 105 105 104 104 103 101 100 98 95 93 90 87 85 83 83 82 82 81 79 78 77 77 77 77 76 74 73 71 72 72 72 72 74 76 79 80 81 84 85 86 86
101 102 102 103 103 103 104 105 105 106 106 105 105 104 103 101 99 97 95 92 90 87 86 85 84 84 84 84 83 82 80 80 79 79 78 78 77 76 75 74 74 74 74 75 77 78 80 83 85 87 88 88
99 99 100 100 100 100 101 101 101 102 102 102 102 101 99 98 96 94 92 91 89 88 87 87 86 86 86 86 86 85 83 82 82 82 81 80 79 79 78 77 76 76 76 76 78 79 81 84 87 89 91 91
95 95 96 96 96 96 97 97 97 97 97 97 97 97 96 95 94 93 92 92 91 91 91 90 90 90 89 89 89 89 87 86 86 85 85 84 82 81 81 81 80 80 79 78 79 80 82 85 88 91 93 93
96 96 97 97 97 98 98 98 98 98 98 98 97 97 97 97 97 96 96 96 96 96 95 95 95 94 94 94 94 93 93 92 91 90 89 89 87 86 84 83 83 83 84 82 81 82 84 86 89 93 95 96
Wind_Direction
280 280 281 281 281 281 281 281 281 281 282 282 283 283 283 283 283 282 282 281 281 281 281 281 280 280 280 279 279 278 277 277 276 275 274 274 273 272 271 270 269 268 267 265 264 263 263 262 262 261 260 258
280 280 280 281 281 281 282 282 282 282 282 282 283 283 282 282 282 281 281 281 281 281 281 280 280 280 279 279 278 278 277 277 276 275 274 273 272 271 271 270 269 268 267 266 265 264 263 262 261 260 259 258
280 280 281 281 281 282 282 282 282 282 282 282 282 282 282 281 281 281 281 281 281 280 280 280 279 279 278 278 277 277 276 276 275 275 274 273 272 271 271 270 269 268 267 266 265 264 263 262 261 259 258 257
281 281 281 282 282 282 282 282 282 282 281 281 281 281 281 281 281 281 281 281 280 280 280 279 279 278 277 277 276 276 275 275 274 274 273 273 272 272 271 270 270 269 268 266 265 264 263 262 261 260 258 257
282 282 282 282 282 282 282 281 281 281 281 281 281 281 280 280 280 280 280 280 280 279 279 278 277 277 276 275 275 274 274 273 273 272 272 272 271 271 271 271 270 269 268 267 266 264 263 262 261 260 259 257
282 282 282 282 282 282 281 281 281 281 280 280 280 280 280 280 280 280 280 279 279 278 277 277 276 276 275 275 274 273 273 272 272 271 271 271 270 270 270 270 270 269 268 267 266 264 263 262 261 260 259 258
282 282 282 282 282 281 281 280 280 280 280 280 280 280 280 280 280 279 278 278 277 277 276 276 276 275 275 275 274 273 272 272 272 271 271 270 270 270 270 270 269 269 268 267 266 265 264 262 261 260 259 258
282 282 282 281 281 280 280 280 280 280 280 280 280 280 280 279 279 278 277 277 276 276 276 276 275 275 275 275 274 273 273 272 272 271 271 270 270 270 270 269 269 268 267 266 265 265 264 263 262 261 259 258
282 282 281 281 280 280 280 280 280 280 280 280 280 279 279 278 278 277 277 277 277 276 276 276 275 275 275 275 275 274 273 273 272 271 271 270 270 270 269 269 268 268 267 266 265 264 263 263 262 261 260 259
281 281 281 281 281 281 281 281 281 281 280 280 279 279 278 278 278 278 278 277 277 277 276 276 276 276 276 276 275 275 274 273 272 271 271 271 270 270 269 269 268 267 267 266 265 264 263 262 262 261 260 259
281 281 281 282 282 282 281 281 281 281 281 280 280 279 279 279 279 278 278 278 277 277 277 277 277 277 277 276 275 275 274 273 272 272 272 271 270 270 269 268 267 267 266 266 264 263 262 261 261 260 259 259
282 282 282 282 282 282 282 282 282 281 281 280 280 280 279 279 279 278 278 278 278 278 278 278 278 277 277 276 276 275 274 274 273 273 272 272 271 270 269 268 267 266 266 265 264 263 261 260 259 259 258 258
282 282 282 282 282 282 282 282 282 281 280 280 280 279 279 279 279 278 278 278 278 278 278 278 278 278 277 277 276 275 275 275 274 274 273 272 272 271 270 269 267 266 265 265 264 263 262 260 259 258 257 257
282 282 282 282 282 282 282 281 281 280 279 279 279 279 279 279 278 278 278 279 279 278 279 279 278 278 277 277 276 276 276 276 275 274 274 273 272 271 270 269 268 266 265 264 264 263 262 260 259 258 257 256
282 282 282 282 282 281 281 280 280 279 279 279 279 279 279 279 279 279 279 279 279 279 279 279 278 278 278 277 277 277 277 276 276 275 274 273 272 271 270 269 268 266 265 264 263 263 262 261 260 258 257 256
282 282 281 281 281 280 280 279 279 279 279 279 279 279 279 279 279 280 280 280 279 279 279 279 279 279 278 278 278 278 277 277 276 275 275 274 273 271 270 269 268 267 265 264 263 263 262 262 260 258 257 256
281 281 281 280 280 280 280 280 280 280 280 280 280 280 280 280 280 280 280 280 279 279 279 279 279 279 279 279 279 278 278 277 277 276 275 273 272 271 270 269 268 267 265 264 263 262 261 261 260 259 257 256
281 281 281 281 281 280 280 280 280 280 280 280 280 280 280 281 281 281 281 280 280 279 279 280 280 280 280 279 279 279 278 278 277 275 274 273 272 270 269 268 267 266 265 263 262 261 260 259 259 258 257 256
281 281 281 281 281 281 280 280 280 280 280 280 280 281 281 281 281 281 281 280 280 280 280 280 280 280 280 280 280 279 278 277 276 274 273 272 271 269 268 267 266 265 264 262 261 260 259 258 258 257 256 255
281 281 281 281 280 280 280 280 280 280 280 280 281 281 281 281 281 281 280 280 280 280 280 280 280 280 280 280 280 279 278 276 275 273 272 270 269 268 267 265 264 263 262 261 260 259 257 257 256 255 253 253
280 280 280 280 280 280 280 280 280 280 280 280 280 280 281 281 280 280 280 279 280 280 280 280 280 280 280 280 279 278 277 275 273 272 271 270 269 267 266 264 263 261 260 260 259 258 256 255 254 253 251 250
280 280 280 280 280 280 279 279 279 279 280 280 280 280 280 280 280 280 279 279 280 280 281 281 280 280 279 279 278 276 275 274 273 271 270 269 268 266 265 264 262 260 259 258 258 257 256 254 252 250 249 248
280 280 280 280 279 279 279 279 279 279 279 279 280 280 280 280 279 279 280 280 280 281 281 280 280 279 279 277 275 274 274 273 272 271 270 269 268 266 265 263 262 260 258 256 256 256 255 253 250 247 246 247
280 280 279 279 279 279 279 279 279 279 279 279 279 279 279 279 279 279 280 280 281 281 280 280 280 279 277 275 273 272 273 272 271 271 270 268 267 266 265 263 262 259 257 256 255 254 254 252 249 245 244 245
279 279 279 279 279 279 278 278 279 279 279 278 278 278 278 279 279 279 280 280 280 280 280 279 278 277 275 272 271 272 272 272 271 270 269 268 267 266 265 264 263 260 257 255 254 253 252 251 247 244 243 243
279 278 278 278 278 278 278 278 278 278 278 278 278 278 278 278 279 279 279 280 279 279 278 278 276 274 272 271 270 270 271 271 271 270 269 267 266 265 264 264 263 261 258 255 254 253 252 249 246 243 242 243
278 278 278 278 278 278 278 278 278 278 278 278 278 278 278 278 279 279 279 278 278 277 277 275 274 272 271 270 269 269 269 269 269 269 269 268 266 265 263 263 263 262 259 256 253 252 251 249 245 243 242 242
279 279 279 279 279 279 278 278 278 278 278 278 278 278 278 279 279 278 278 278 277 276 275 273 272 271 270 270 269 268 267 267 267 266 266 267 266 266 264 262 261 261 260 257 254 252 250 248 244 243 243 243
279 279 279 279 279 279 279 279 279 279 279 279 279 279 279 279 278 278 277 277 276 275 274 273 272 272 271 270 270 269 268 267 266 265 264 264 264 264 264 263 262 261 259 257 255 252 250 247 244 242 243 244
280 280 279 279 280 280 280 280 280 280 279 279 279 279 279 278 278 278 277 276 276 275 274 274 273 272 272 271 271 270 269 268 267 265 264 263 262 261 261 262 262 261 259 257 256 254 250 247 243 241 242 243
279 279 280 280 280 280 280 280 280 280 279 279 279 279 279 278 278 277 277 276 275 275 274 274 273 272 272 271 271 270 269 269 268 267 266 265 263 261 260 260 259 260 260 258 256 254 252 248 244 241 241 242